Погода в Желохове

Россия / Калужская область     54°21′56″N   36°08′20″E
темп.,
°C
ветер,
м/с
пор.,
м/с
влажн.,
%
обл.,
%
осадки,
мм/ч
давл.,
гПа
погр.,
м
4 декабря, сб
сб400:00−1з51190100 0.1 1003642
03:00−3зюз512905 0.1 1004487
06:00−4зюз6139187 0.0 1005604
09:00−3зюз61288100 0.1 10081064
12:00−2зюз6128143 0.1 1009941
15:00−3з5108674 0.1 1010627
18:00−4юз389399 0.0 1012332
21:00−3ююз279485 0.0 1012286
5 декабря, вс
вс500:00−5ююз379764 0.0 1013145
03:00−4ю2697100 0.0 1014212
06:00−3ю3795100 0.0 1014225
09:00−3ю3793100 0.0 1014253
12:00−1ююз388892 0.0 1015402
15:00−2ю24925 0.0 1016103
18:00−6ю25977 0.0 101675
21:00−7ю239891 0.0 101851
6 декабря, пн
пн600:00−7ююв2398100 0.0 101849
03:00−5ююв2596100 0.0 1019103
06:00−5юв2495100 0.0 101878
09:00−3юв2591100 0.0 1020131
12:00−2юв3882100 0.0 1019328
15:00−2юв3881100 0.0 1018322
18:00−4юв3987100 0.0 1019240
21:00−3юв41088100 0.0 1018305
7 декабря, вт
вт700:00−2юв41096100 0.1 1017380
03:00−1юв51297100 1.9 1014521
06:000юв61498100 3.5 1011595
09:00+1ююв41198100 5.6 1010494
12:00+1ю37100100 0.1 1010295
15:00+1ююв13100100 0.5 1010117
18:000юв00100100 1.2 101021
21:000с23100100 3.8 1010124
8 декабря, ср
ср800:000с3699100 6.3 1010248
03:00−1ссз3798100 9.7 1011316
06:00−2с489578 0.8 1013338
09:00−6с489680 0.8 1015250
12:00−6с479299 0.0 1017252
15:00−6ссв4791100 0.0 1016315
18:00−6ссв41090100 0.1 1017355
21:00−7ссв51190100 0.4 1017348